Location: Maccacari
(45.1333°N, 11.1333°E)
Time: 01:15:27
(UTC+00:00)

A-11 Canister half - Pass Details

Date: 21 January 2021
Orbit: 1525 x 1684 km, 47.3° (Epoch: 07 March)

Event Time Altitude Azimuth Distance (km) Brightness Sun altitude
Rises 13:27:38 0° 208° (SSW) 4,662 13.2 19.5°
Reaches altitude 10° 13:30:54 10° 201° (SSW) 3,688 13.1 19.2°
Maximum altitude 13:39:14 39° 137° (SE) 2,181 10.2 18.4°
Drops below altitude 10° 13:47:46 10° 73° (ENE) 3,782 10.7 17.6°
Sets 13:51:09 0° 66° (ENE) 4,792 11.1 17.3°
